GW0378 Weather Reports


time (UTC)temp
C
wind
direction
speed
KPH
gust
KPH
rain 1hr
cm
rain 24hr
cm
rain mn
cm
humidity
%
barometer
mb
20260507110618 10 97 4.8 8.0 0.00 0.00 0.00 68 1013.5
20260507110115 11 109 6.4 6.4 0.00 0.00 0.00 64 1013.2
20260507105612 10 108 4.8 4.8 0.00 0.00 0.00 67 1013.5
20260507105108 10 117 3.2 4.8 0.00 0.00 0.00 67 1013.6
20260507104606 11 120 4.8 8.0 0.00 0.00 0.00 65 1013.1
20260507104102 12 59 8.0 9.7 0.00 0.00 0.00 62 1013.4
20260507103558 13 345 3.2 6.4 0.00 0.00 0.00 56 1013.0
20260507103055 13 85 3.2 4.8 0.00 0.00 0.00 53 1013.0
20260507102551 13 208 8.0 8.0 0.00 0.00 0.00 52 1013.0
20260507102047 12 246 3.2 9.7 0.00 0.00 0.00 60 1012.8
20260507101543 12 103 8.0 8.0 0.00 0.00 0.00 63 1013.1
20260507101039 12 96 4.8 8.0 0.00 0.00 0.00 61 1013.1
20260507100537 13 28 3.2 4.8 0.00 0.00 0.00 57 1013.0
20260507100035 13 117 0.0 3.2 0.00 0.00 0.00 57 1013.2
20260507095533 15 195 0.0 6.4 0.00 0.00 0.00 54 1013.0
20260507095029 15 197 3.2 9.7 0.00 0.00 0.00 53 1012.8
20260507094525 15 278 6.4 9.7 0.00 0.00 0.00 52 1012.7
20260507094022 15 212 4.8 4.8 0.00 0.00 0.00 54 1012.9
20260507093520 15 236 8.0 12.9 0.00 0.00 0.00 54 1012.6
20260507093018 14 154 3.2 6.4 0.00 0.00 0.00 57 1012.6
20260507092514 13 254 3.2 8.0 0.00 0.00 0.00 60 1012.6
20260507092011 12 104 4.8 4.8 0.00 0.00 0.00 63 1012.8
20260507091508 12 90 0.0 4.8 0.00 0.00 0.00 64 1012.7
20260507091003 11 101 4.8 6.4 0.00 0.00 0.00 66 1012.8
20260507090459 12 90 4.8 8.0 0.00 0.00 0.00 65 1012.7
20260507085956 12 106 6.4 8.0 0.00 0.00 0.00 65 1012.8
20260507085454 12 103 6.4 6.4 0.00 0.00 0.00 65 1012.7
20260507084950 12 107 4.8 4.8 0.00 0.00 0.00 64 1012.7
20260507084447 12 100 6.4 6.4 0.00 0.00 0.00 62 1012.7
20260507083944 12 100 3.2 4.8 0.00 0.00 0.00 62 1012.8
20260507083440 13 109 4.8 4.8 0.00 0.00 0.00 60 1012.9
20260507082937 13 101 4.8 6.4 0.00 0.00 0.00 62 1013.2
20260507082433 13 90 4.8 6.4 0.00 0.00 0.00 61 1012.9
20260507081930 14 103 4.8 4.8 0.00 0.00 0.00 58 1012.6
20260507081426 15 187 1.6 3.2 0.00 0.00 0.00 57 1012.7
20260507080923 15 180 0.0 4.8 0.00 0.00 0.00 54 1012.8
20260507080419 15 270 0.0 4.8 0.00 0.00 0.00 54 1012.6
20260507075914 16 246 0.0 8.0 0.00 0.00 0.00 52 1012.4
20260507075411 16 258 0.0 4.8 0.00 0.00 0.00 52 1012.5
20260507074908 16 262 1.6 12.9 0.00 0.00 0.00 51 1012.5
20260507074404 15 251 0.0 1.6 0.00 0.00 0.00 53 1012.4
20260507073902 16 301 4.8 8.0 0.00 0.00 0.00 52 1012.5
20260507073358 15 194 4.8 8.0 0.00 0.00 0.00 54 1012.3
20260507072855 15 180 0.0 4.8 0.00 0.00 0.00 56 1012.5
20260507072353 14 185 1.6 4.8 0.00 0.00 0.00 58 1012.8
20260507071850 15 135 3.2 3.2 0.00 0.00 0.00 55 1012.5
20260507071348 15 148 3.2 4.8 0.00 0.00 0.00 55 1012.6
20260507070843 15 97 1.6 4.8 0.00 0.00 0.00 54 1012.6
20260507070341 16 97 1.6 3.2 0.00 0.00 0.00 52 1012.7
20260507065838 16 90 0.0 4.8 0.00 0.00 0.00 50 1012.7
20260507065334 17 252 4.8 8.0 0.00 0.00 0.00 49 1012.5
20260507064831 17 287 3.2 8.0 0.00 0.00 0.00 48 1012.7
20260507064330 17 283 9.7 14.5 0.00 0.00 0.00 47 1012.4
20260507063827 17 286 3.2 14.5 0.00 0.00 0.00 47 1012.5
20260507063324 17 213 6.4 16.1 0.00 0.00 0.00 47 1012.8
20260507062821 17 228 6.4 14.5 0.00 0.00 0.00 47 1012.5
20260507062318 17 270 4.8 11.3 0.00 0.00 0.00 46 1012.6
20260507061816 17 303 6.4 11.3 0.00 0.00 0.00 45 1012.5
20260507061314 17 270 3.2 8.0 0.00 0.00 0.00 46 1012.6
20260507060812 17 278 4.8 11.3 0.00 0.00 0.00 45 1012.6
20260507060308 17 253 4.8 17.7 0.00 0.00 0.00 45 1012.6
20260507055805 17 227 4.8 8.0 0.00 0.00 0.00 44 1012.7
20260507055300 17 228 6.4 19.3 0.00 0.00 0.00 43 1012.7
20260507054756 17 264 4.8 14.5 0.00 0.00 0.00 43 1012.7
20260507054253 17 188 0.0 4.8 0.00 0.00 0.00 43 1012.6
20260507053750 17 240 1.6 8.0 0.00 0.00 0.00 43 1012.6
20260507053248 17 253 4.8 4.8 0.00 0.00 0.00 42 1012.7
20260507052747 18 285 4.8 12.9 0.00 0.00 0.00 41 1012.5
20260507052243 18 291 9.7 16.1 0.00 0.00 0.00 41 1012.6
20260507051741 17 235 6.4 11.3 0.00 0.00 0.00 41 1012.3
20260507051237 17 157 1.6 4.8 0.00 0.00 0.00 43 1012.5
20260507050734 17 261 0.0 4.8 0.00 0.00 0.00 42 1012.6
20260507050231 17 248 4.8 6.4 0.00 0.00 0.00 41 1012.3
20260507045728 17 270 0.0 6.4 0.00 0.00 0.00 40 1012.4
20260507045224 17 251 1.6 9.7 0.00 0.00 0.00 41 1012.4
20260507044722 17 255 8.0 8.0 0.00 0.00 0.00 41 1012.8
20260507044218 18 180 3.2 3.2 0.00 0.00 0.00 40 1012.4
20260507043714 17 258 0.0 8.0 0.00 0.00 0.00 40 1012.5
20260507043211 17 261 0.0 12.9 0.00 0.00 0.00 40 1012.5
20260507042708 17 157 3.2 9.7 0.00 0.00 0.00 41 1012.6
20260507042202 17 261 0.0 8.0 0.00 0.00 0.00 43 1012.7
20260507041700 17 262 0.0 1.6 0.00 0.00 0.00 42 1012.5
20260507041156 18 288 3.2 9.7 0.00 0.00 0.00 39 1012.6
20260507040653 17 274 4.8 8.0 0.00 0.00 0.00 41 1012.5
20260507040150 18 273 6.4 9.7 0.00 0.00 0.00 40 1012.7
20260507035646 18 272 8.0 9.7 0.00 0.00 0.00 39 1012.5
20260507035142 18 251 1.6 8.0 0.00 0.00 0.00 41 1012.5
20260507034639 17 287 3.2 8.0 0.00 0.00 0.00 43 1012.3
20260507034136 17 18 0.0 4.8 0.00 0.00 0.00 47 1012.5
20260507033635 16 126 1.6 4.8 0.00 0.00 0.00 50 1012.4
20260507033131 16 41 3.2 8.0 0.00 0.00 0.00 49 1012.1
20260507032629 16 76 4.8 6.4 0.00 0.00 0.00 54 1012.3
20260507032124 17 106 4.8 11.3 0.00 0.00 0.00 52 1012.0
20260507031622 15 101 4.8 6.4 0.00 0.00 0.00 58 1011.9
20260507031118 15 105 4.8 9.7 0.00 0.00 0.00 58 1011.8
20260507030615 15 107 0.0 6.4 0.00 0.00 0.00 60 1011.7
20260507030113 15 90 3.2 4.8 0.00 0.00 0.00 57 1011.8
20260507025610 15 125 3.2 4.8 0.00 0.00 0.00 57 1011.6
20260507025107 16 65 3.2 6.4 0.00 0.00 0.00 57 1011.7
20260507024605 15 108 8.0 16.1 0.00 0.00 0.00 58 1011.5
20260507024102 16 94 8.0 17.7 0.00 0.00 0.00 57 1011.5
20260507023557 16 110 9.7 12.9 0.00 0.00 0.00 56 1011.7
20260507023055 16 88 9.7 11.3 0.00 0.00 0.00 55 1011.7
20260507022551 17 95 9.7 12.9 0.00 0.00 0.00 51 1011.5
20260507022046 17 120 11.3 12.9 0.00 0.00 0.00 49 1011.8
20260507021543 17 109 12.9 14.5 0.00 0.00 0.00 49 1011.6
20260507021040 17 135 6.4 16.1 0.00 0.00 0.00 51 1011.5
20260507020538 17 134 6.4 16.1 0.00 0.00 0.00 53 1011.7
20260507020034 16 108 8.0 11.3 0.00 0.00 0.00 54 1011.7
20260507015532 17 113 9.7 9.7 0.00 0.00 0.00 55 1011.5
20260507015029 17 123 8.0 8.0 0.00 0.00 0.00 56 1011.6
20260507014526 17 108 6.4 16.1 0.00 0.00 0.00 55 1011.7
20260507014021 17 70 4.8 12.9 0.00 0.00 0.00 50 1011.6
20260507013518 17 129 8.0 14.5 0.00 0.00 0.00 51 1011.6
20260507013016 17 106 4.8 9.7 0.00 0.00 0.00 54 1011.8
20260507012513 17 113 8.0 14.5 0.00 0.00 0.00 56 1011.7
20260507012009 17 145 4.8 11.3 0.00 0.00 0.00 60 1011.8
20260507011506 17 103 3.2 8.0 0.00 0.00 0.00 62 1011.6
20260507011002 17 92 8.0 8.0 0.00 0.00 0.00 62 1011.6
20260507010456 17 75 3.2 8.0 0.00 0.00 0.00 60 1011.9
20260507005953 17 111 4.8 4.8 0.00 0.00 0.00 60 1011.8
20260507005451 18 101 3.2 3.2 0.00 0.00 0.00 55 1012.0
20260507004947 18 90 0.0 0.0 0.00 0.00 0.00 57 1011.8
20260507004444 18 82 1.6 3.2 0.00 0.00 0.00 57 1011.6
20260507003942 18 117 0.0 3.2 0.00 0.00 0.00 56 1011.7
20260507003437 17 123 0.0 0.0 0.00 0.00 0.00 58 1011.9
20260507002932 17 95 4.8 8.0 0.00 0.00 0.00 58 1011.9
20260507002428 17 105 11.3 11.3 0.00 0.00 0.00 55 1011.8
20260507001926 18 155 4.8 8.0 0.00 0.00 0.00 57 1011.9
20260507001422 18 90 4.8 8.0 0.00 0.00 0.00 53 1011.9
20260507000920 18 8 0.0 8.0 0.00 0.00 0.00 52 1011.9
20260507000415 20 20 4.8 4.8 0.00 0.00 0.00 44 1011.5
20260506235911 20 0 1.6 4.8 0.00 0.00 0.00 42 1011.8
20260506235409 20 68 3.2 4.8 0.00 0.00 0.00 46 1011.8
20260506234904 20 270 8.0 9.7 0.00 0.00 0.00 43 1012.1
20260506234402 20 263 4.8 8.0 0.00 0.00 0.00 42 1012.1
20260506233900 20 210 6.4 6.4 0.00 0.00 0.00 44 1011.8
20260506233355 20 180 1.6 3.2 0.00 0.00 0.00 47 1011.8
20260506232852 19 90 0.0 8.0 0.00 0.00 0.00 50 1011.9
20260506232348 18 243 6.4 27.4 0.00 0.00 0.00 48 1012.1
20260506231844 18 276 6.4 22.5 0.00 0.00 0.00 51 1012.6
20260506231342 18 294 17.7 46.7 0.00 0.00 0.00 51 1012.8
20260506230839 20 270 6.4 12.9 0.00 0.00 0.00 40 1012.5
20260506230336 20 348 1.6 4.8 0.00 0.00 0.00 39 1011.9
20260506225832 20 270 0.0 6.4 0.00 0.00 0.00 37 1012.1
20260506225330 21 315 4.8 8.0 0.00 0.00 0.00 37 1011.7
20260506224827 21 291 0.0 6.4 0.00 0.00 0.00 37 1012.0
20260506224324 21 257 3.2 8.0 0.00 0.00 0.00 38 1011.9
20260506223820 21 301 6.4 8.0 0.00 0.00 0.00 37 1012.0
20260506223315 21 261 3.2 6.4 0.00 0.00 0.00 36 1012.0
20260506222813 22 194 1.6 3.2 0.00 0.00 0.00 36 1012.5
20260506222308 22 117 1.6 4.8 0.00 0.00 0.00 36 1012.4
20260506221806 22 77 0.0 4.8 0.00 0.00 0.00 38 1012.6
20260506221304 21 170 4.8 4.8 0.00 0.00 0.00 36 1012.8
20260506220801 22 23 0.0 4.8 0.00 0.00 0.00 37 1012.7
20260506220256 21 213 3.2 4.8 0.00 0.00 0.00 35 1012.8
20260506215753 21 279 3.2 4.8 0.00 0.00 0.00 35 1012.7
20260506215249 20 0 4.8 6.4 0.00 0.00 0.00 35 1012.9
20260506214745 21 311 4.8 8.0 0.00 0.00 0.00 34 1013.1
20260506214242 20 213 6.4 8.0 0.00 0.00 0.00 35 1013.1
20260506213740 20 283 0.0 9.7 0.00 0.00 0.00 37 1013.1
20260506213232 20 252 4.8 8.0 0.00 0.00 0.00 37 1013.5
20260506212729 20 98 0.0 4.8 0.00 0.00 0.00 35 1013.5
20260506212224 19 345 1.6 8.0 0.00 0.00 0.00 37 1013.6
20260506211720 20 111 1.6 3.2 0.00 0.00 0.00 36 1013.7
20260506211216 18 354 1.6 6.4 0.00 0.00 0.00 37 1013.7
20260506210713 18 26 1.6 6.4 0.00 0.00 0.00 36 1014.1
20260506210210 19 9 3.2 6.4 0.00 0.00 0.00 36 1014.0
20260506205707 18 315 4.8 6.4 0.00 0.00 0.00 37 1014.2
20260506205202 18 250 3.2 9.7 0.00 0.00 0.00 38 1014.1
20260506204700 18 255 3.2 11.3 0.00 0.00 0.00 37 1014.4
20260506204156 18 124 0.0 4.8 0.00 0.00 0.00 35 1014.1
20260506203655 18 56 3.2 6.4 0.00 0.00 0.00 37 1014.6
20260506203152 17 74 3.2 9.7 0.00 0.00 0.00 38 1014.2
20260506202650 18 57 3.2 8.0 0.00 0.00 0.00 36 1014.1
20260506202145 17 160 1.6 6.4 0.00 0.00 0.00 36 1014.6
20260506201642 16 40 3.2 9.7 0.00 0.00 0.00 38 1014.6
20260506201139 17 277 12.9 12.9 0.00 0.00 0.00 38 1014.6
20260506200636 17 235 6.4 11.3 0.00 0.00 0.00 39 1014.7
20260506200133 16 213 4.8 8.0 0.00 0.00 0.00 38 1014.8
20260506195629 16 293 8.0 11.3 0.00 0.00 0.00 40 1014.8
20260506195125 16 11 6.4 8.0 0.00 0.00 0.00 41 1015.0
20260506194623 16 261 0.0 3.2 0.00 0.00 0.00 39 1015.1
20260506194119 15 266 8.0 14.5 0.00 0.00 0.00 39 1015.2
20260506193617 15 277 4.8 8.0 0.00 0.00 0.00 41 1015.1
20260506193114 15 276 8.0 9.7 0.00 0.00 0.00 39 1015.5
20260506192611 15 259 6.4 12.9 0.00 0.00 0.00 40 1015.5
20260506192107 15 249 1.6 12.9 0.00 0.00 0.00 40 1015.5
20260506191604 15 305 4.8 9.7 0.00 0.00 0.00 41 1015.6
20260506191059 15 18 0.0 6.4 0.00 0.00 0.00 40 1016.0
20260506190557 15 312 8.0 12.9 0.00 0.00 0.00 41 1015.9
20260506190054 14 23 1.6 11.3 0.00 0.00 0.00 46 1016.0
20260506185551 15 279 4.8 8.0 0.00 0.00 0.00 45 1016.1
20260506185047 14 36 3.2 8.0 0.00 0.00 0.00 43 1016.2
20260506184545 13 66 0.0 12.9 0.00 0.00 0.00 42 1016.1
20260506184042 13 7 1.6 9.7 0.00 0.00 0.00 42 1016.4
20260506183538 12 248 3.2 9.7 0.00 0.00 0.00 49 1016.6
20260506183035 13 78 3.2 8.0 0.00 0.00 0.00 42 1016.5
20260506182532 12 281 3.2 9.7 0.00 0.00 0.00 46 1016.5
20260506182029 12 292 3.2 8.0 0.00 0.00 0.00 47 1016.6
20260506181527 12 300 8.0 9.7 0.00 0.00 0.00 45 1016.5
20260506181024 12 188 3.2 6.4 0.00 0.00 0.00 43 1016.7
20260506180520 12 294 6.4 8.0 0.00 0.00 0.00 47 1016.6
20260506180017 11 330 6.4 11.3 0.00 0.00 0.00 47 1016.7
20260506175513 11 250 6.4 8.0 0.00 0.00 0.00 46 1016.8
20260506175010 12 270 1.6 6.4 0.00 0.00 0.00 48 1017.0
20260506174508 11 243 0.0 6.4 0.00 0.00 0.00 45 1017.1
20260506174004 11 246 6.4 9.7 0.00 0.00 0.00 46 1016.9
20260506173502 11 82 3.2 9.7 0.00 0.00 0.00 48 1017.0
20260506172959 11 265 3.2 9.7 0.00 0.00 0.00 49 1017.4
20260506172456 11 272 6.4 8.0 0.00 0.00 0.00 49 1017.2
20260506171952 10 286 3.2 6.4 0.00 0.00 0.00 52 1017.2
20260506171450 10 251 4.8 9.7 0.00 0.00 0.00 53 1017.5
20260506170947 10 288 4.8 8.0 0.00 0.00 0.00 50 1017.6
20260506170443 10 330 4.8 8.0 0.00 0.00 0.00 52 1017.6
20260506165936 10 303 0.0 8.0 0.00 0.00 0.00 53 1017.5
20260506165434 9 334 3.2 6.4 0.00 0.00 0.00 53 1017.6
20260506164929 9 0 3.2 8.0 0.00 0.00 0.00 53 1018.0
20260506164427 9 103 3.2 9.7 0.00 0.00 0.00 51 1018.0
20260506163919 8 71 0.0 8.0 0.00 0.00 0.00 54 1017.9
20260506163414 8 199 6.4 6.4 0.00 0.00 0.00 52 1018.1
20260506162909 8 1 6.4 8.0 0.00 0.00 0.00 53 1018.1
20260506162407 8 280 8.0 9.7 0.00 0.00 0.00 55 1018.2
20260506161904 8 286 3.2 6.4 0.00 0.00 0.00 54 1018.3
20260506161402 7 124 8.0 8.0 0.00 0.00 0.00 55 1018.5
20260506160859 7 283 3.2 9.7 0.00 0.00 0.00 56 1018.5
20260506160356 8 328 1.6 4.8 0.00 0.00 0.00 56 1018.5
20260506155854 7 263 6.4 8.0 0.00 0.00 0.00 57 1018.7
20260506155350 7 248 3.2 3.2 0.00 0.00 0.00 54 1018.7
20260506153508 6 334 0.0 4.8 0.00 0.00 0.00 60 1018.8
20260506153005 6 289 0.0 4.8 0.00 0.00 0.00 59 1018.9
20260506152502 6 172 0.0 4.8 0.00 0.00 0.00 60 1019.0
20260506152000 6 253 3.2 8.0 0.00 0.00 0.00 60 1019.2
20260506151458 6 270 3.2 6.4 0.00 0.00 0.00 62 1019.2
20260506150955 5 285 3.2 6.4 0.00 0.00 0.00 61 1019.1
20260506150450 6 6 4.8 6.4 0.00 0.00 0.00 61 1019.1
20260506145948 6 3 3.2 8.0 0.00 0.00 0.00 60 1019.2
20260506145444 5 314 8.0 8.0 0.00 0.00 0.00 62 1019.3
20260506144942 5 284 4.8 6.4 0.00 0.00 0.00 61 1019.2
20260506144438 5 297 4.8 8.0 0.00 0.00 0.00 62 1019.2
20260506143937 6 15 4.8 4.8 0.00 0.00 0.00 62 1019.1
20260506143433 6 180 0.0 3.2 0.00 0.00 0.00 60 1019.2
20260506142932 5 282 0.0 4.8 0.00 0.00 0.00 62 1019.3
20260506142429 5 264 4.8 6.4 0.00 0.00 0.00 64 1019.2
20260506141927 4 199 6.4 8.0 0.00 0.00 0.00 65 1019.2
20260506141425 4 228 6.4 8.0 0.00 0.00 0.00 65 1019.2
20260506140923 4 291 4.8 4.8 0.00 0.00 0.00 65 1019.2
20260506140420 3 255 3.2 3.2 0.00 0.00 0.00 66 1019.1
20260506135916 3 251 1.6 4.8 0.00 0.00 0.00 66 1019.1
20260506135414 3 253 0.0 4.8 0.00 0.00 0.00 66 1019.2
20260506134910 3 174 1.6 4.8 0.00 0.00 0.00 66 1019.0
20260506134406 3 69 0.0 3.2 0.00 0.00 0.00 66 1019.2
20260506133903 3 139 6.4 11.3 0.00 0.00 0.00 66 1019.2
20260506133400 2 113 4.8 19.3 0.00 0.00 0.00 67 1018.9
20260506132856 2 124 14.5 19.3 0.00 0.00 0.00 68 1019.2
20260506132353 2 119 8.0 14.5 0.00 0.00 0.00 68 1019.2
20260506131852 2 108 8.0 16.1 0.00 0.00 0.00 68 1019.0
20260506131347 2 107 8.0 16.1 0.00 0.00 0.00 69 1019.1
20260506130845 1 125 8.0 12.9 0.00 0.00 0.00 70 1019.1
20260506130341 1 145 1.6 4.8 0.00 0.00 0.00 71 1019.1
20260506125839 1 109 8.0 8.0 0.00 0.00 0.00 71 1019.2
20260506125337 1 113 6.4 14.5 0.00 0.00 0.00 71 1019.1
20260506124835 1 125 6.4 11.3 0.00 0.00 0.00 70 1018.8
20260506124332 1 150 3.2 9.7 0.00 0.00 0.00 70 1019.0
20260506123830 1 99 3.2 17.7 0.00 0.00 0.00 70 1019.0
20260506123328 1 113 9.7 16.1 0.00 0.00 0.00 70 1019.0
20260506122825 1 125 6.4 14.5 0.00 0.00 0.00 69 1018.8
20260506122322 1 111 11.3 14.5 0.00 0.00 0.00 69 1018.9
20260506121820 1 125 9.7 12.9 0.00 0.00 0.00 69 1018.7
20260506121317 1 97 12.9 14.5 0.00 0.00 0.00 70 1018.7
20260506120814 1 118 8.0 20.9 0.00 0.00 0.00 69 1018.7
20260506120312 1 110 8.0 12.9 0.00 0.00 0.00 70 1018.7
20260506115809 1 116 6.4 12.9 0.00 0.00 0.00 71 1018.7
20260506115307 1 121 8.0 12.9 0.00 0.00 0.00 71 1018.5
20260506114804 1 126 12.9 24.1 0.00 0.00 0.00 71 1018.7
20260506114302 1 131 6.4 20.9 0.00 0.00 0.00 69 1018.6
20260506113800 1 128 9.7 16.1 0.00 0.00 0.00 70 1018.6
20260506113258 1 120 9.7 14.5 0.00 0.00 0.00 68 1018.7
20260506112754 2 113 4.8 14.5 0.00 0.00 0.00 68 1018.9
20260506112252 2 97 6.4 11.3 0.00 0.00 0.00 67 1018.9
20260506111749 2 129 3.2 11.3 0.00 0.00 0.00 66 1018.9
20260506111247 2 112 6.4 9.7 0.00 0.00 0.00 67 1018.8